Flag for Australia Weather past 2 weeks in Townsville, Queensland, Australia

Now
72 °F

Overcast.


Feels Like: 71 °F
Forecast: 71 / 78 °F
Wind: 9 mph from Southeast

Location: Townsville Amo

Current Time: May 29, 2015 at 3:19:39 AM

Latest Report: May 29, 2015 at 3:00 AM


Visibility: N/A

Pressure: 30.09 "Hg

Humidity: 83%

Dew point: 66 °F

Location of TownsvilleLocation

Historic Weather in Townsville — Graph

°F

Townsville temperature yesterday

Maximum temperature yesterday: 82 °F (at 12:00 PM)
Minimum temperature yesterday: 64 °F (at 6:00 AM)
Average temperature yesterday: 74 °F

Past Weeks' High & Low Weather Summary

 TemperatureHumidityPressure
High86 °F (May 22, 2:30 PM)100% (May 20, 3:30 AM)30.21 "Hg (May 20, 3:30 AM)
Low55 °F (May 15, 6:30 AM)12% (May 15, 2:00 AM)29.95 "Hg (May 21, 2:30 PM)
Average74 °F60%30.08 "Hg
* Reported May 14 2:00 AM — May 29 2:00 AM, Townsville, Weather by CustomWeather, © 2015

Note: Actual official high and low records may vary slightly from our data, if they occured in-between our weather recording intervals... More about our weather records

Advertising

Townsville weather history for previous 24 hours

 ConditionsComfort  
Time TempWeatherWind HumidityBarometerVisibility
2:00 AM
Fri, May 29
72 °FMostly cloudy.9 mph88%30.09 "HgN/A
1:00 AM72 °FOvercast.10 mph88%30.09 "HgN/A
12:30 AM72 °FDrizzle. Overcast.8 mph94%30.12 "Hg3 mi
12:00 AM73 °FOvercast.6 mph89%30.12 "HgN/A
11:30 PM
Thu, May 28
72 °FOvercast.7 mph88%30.12 "HgN/A
11:00 PM72 °FSprinkles. Overcast.13 mph94%30.12 "Hg4 mi
10:00 PM75 °FPartly cloudy.10 mph78%30.12 "HgN/A
9:30 PM75 °FPartly cloudy.8 mph74%30.12 "HgN/A
9:00 PM75 °FPartly cloudy.8 mph74%30.12 "HgN/A
8:30 PM75 °FPassing clouds.12 mph74%30.12 "HgN/A
8:00 PM75 °FPassing clouds.14 mph74%30.09 "HgN/A
7:30 PM75 °FPassing clouds.14 mph78%30.09 "HgN/A
7:00 PM75 °FPassing clouds.14 mph74%30.09 "HgN/A
6:30 PM75 °FPassing clouds.13 mph78%30.07 "HgN/A
6:00 PM75 °FPassing clouds.16 mph74%30.07 "HgN/A
5:30 PM77 °FPartly sunny.15 mph69%30.07 "HgN/A
5:00 PM77 °FBroken clouds.17 mph69%30.04 "HgN/A
4:30 PM79 °FBroken clouds.15 mph65%30.04 "HgN/A
4:00 PM77 °FPartly sunny.16 mph69%30.04 "HgN/A
3:30 PM79 °FPartly sunny.17 mph65%30.04 "HgN/A
3:00 PM81 °FBroken clouds.18 mph62%30.04 "HgN/A
2:30 PM81 °FPassing clouds.16 mph58%30.04 "HgN/A
2:00 PM81 °FSunny.17 mph58%30.04 "HgN/A
1:30 PM81 °FPassing clouds.16 mph62%30.04 "HgN/A
1:00 PM81 °FPassing clouds.17 mph58%30.07 "HgN/A
12:30 PM82 °FPassing clouds.20 mph55%30.07 "HgN/A
12:00 PM82 °FPassing clouds.17 mph51%30.07 "HgN/A
11:30 AM81 °FPassing clouds.15 mph54%30.09 "HgN/A
11:00 AM81 °FPassing clouds.15 mph54%30.09 "HgN/A
10:30 AM79 °FPassing clouds.13 mph58%30.12 "HgN/A
10:00 AM79 °FPassing clouds.10 mph58%30.12 "HgN/A
9:30 AM77 °FScattered clouds.6 mph61%30.12 "HgN/A
9:00 AM75 °FScattered clouds.5 mph65%30.12 "HgN/A
8:30 AM72 °FPassing clouds.1 mph73%30.12 "HgN/A
8:00 AM68 °FPassing clouds.1 mph83%30.12 "HgN/A
7:30 AM64 °FPassing clouds.No wind94%30.09 "HgN/A
7:00 AM64 °FPassing clouds.3 mph88%30.09 "HgN/A
6:30 AM64 °FPassing clouds.3 mph88%30.09 "HgN/A
6:00 AM64 °FPassing clouds.5 mph88%30.07 "HgN/A
5:30 AM66 °FClear.7 mph88%30.07 "HgN/A
5:00 AM66 °FClear.6 mph88%30.07 "HgN/A
4:30 AM68 °FClear.7 mph83%30.07 "HgN/A
4:00 AM70 °FClear.8 mph78%30.07 "HgN/A
3:30 AM72 °FClear.9 mph73%30.07 "HgN/A
3:00 AM72 °FPassing clouds.9 mph78%30.07 "HgN/A
Weather by CustomWeather, © 2015

See weather overviewHow to use our weather pages